Time,TemperatureF,DewpointF,PressureIn,WindDirection,WindDirectionDegrees,WindSpeedMPH,WindSpeedGustMPH,Humidity,HourlyPrecipIn,Conditions,Clouds,dailyrainin,SoftwareType,DateUTC
2013-04-07 00:00:00,46.0,46.0,29.80,SSE,160,9.0,10.0,99,-99.99,,,-99.99,,2013-04-07 07:00:00,
2013-04-07 00:21:00,46.0,46.0,29.80,SSE,160,9.0,10.0,99,-99.99,,,-99.99,,2013-04-07 07:21:00,
2013-04-07 00:31:00,46.0,46.0,29.80,SSE,160,9.0,10.0,99,-99.99,,,-99.99,,2013-04-07 07:31:00,
2013-04-07 00:41:00,46.0,46.0,29.80,SSE,160,9.0,10.0,99,-99.99,,,-99.99,,2013-04-07 07:41:00,
2013-04-07 00:51:00,46.0,46.0,29.80,SSE,160,9.0,10.0,99,-99.99,,,-99.99,,2013-04-07 07:51:00,
2013-04-07 01:00:00,44.0,44.0,29.72,East,80,5.0,6.0,100,-99.99,,,-99.99,,2013-04-07 08:00:00,
2013-04-07 01:32:00,44.0,44.0,29.72,East,80,5.0,6.0,100,-99.99,,,-99.99,,2013-04-07 08:32:00,
2013-04-07 01:41:00,44.0,44.0,29.72,East,80,5.0,6.0,100,-99.99,,,-99.99,,2013-04-07 08:41:00,
2013-04-07 01:51:00,44.0,44.0,29.72,East,80,5.0,6.0,100,-99.99,,,-99.99,,2013-04-07 08:51:00,
2013-04-07 02:00:00,43.0,43.0,29.67,NNE,20,2.0,3.0,100,-99.99,,,-99.99,,2013-04-07 09:00:00,
2013-04-07 02:21:00,43.0,43.0,29.67,NNE,20,2.0,3.0,100,-99.99,,,-99.99,,2013-04-07 09:21:00,
2013-04-07 02:33:00,43.0,43.0,29.67,NNE,20,2.0,3.0,100,-99.99,,,-99.99,,2013-04-07 09:33:00,
2013-04-07 02:42:00,43.0,43.0,29.67,NNE,20,2.0,3.0,100,-99.99,,,-99.99,,2013-04-07 09:42:00,
2013-04-07 02:52:00,43.0,43.0,29.67,NNE,20,2.0,3.0,100,-99.99,,,-99.99,,2013-04-07 09:52:00,
2013-04-07 03:00:00,43.0,43.0,29.62,North,10,8.0,9.0,100,-99.99,,,-99.99,,2013-04-07 10:00:00,
2013-04-07 03:22:00,43.0,43.0,29.62,North,10,8.0,9.0,100,-99.99,,,-99.99,,2013-04-07 10:22:00,
2013-04-07 03:32:00,43.0,43.0,29.62,North,10,8.0,9.0,100,-99.99,,,-99.99,,2013-04-07 10:32:00,
2013-04-07 03:42:00,43.0,43.0,29.62,North,10,8.0,9.0,100,-99.99,,,-99.99,,2013-04-07 10:42:00,
2013-04-07 03:52:00,43.0,43.0,29.62,North,10,8.0,9.0,100,-99.99,,,-99.99,,2013-04-07 10:52:00,
2013-04-07 04:00:00,43.0,43.0,29.57,North,360,20.0,22.0,100,-99.99,,,-99.99,,2013-04-07 11:00:00,
2013-04-07 04:21:00,43.0,43.0,29.57,North,360,20.0,22.0,100,-99.99,,,-99.99,,2013-04-07 11:21:00,
2013-04-07 04:32:00,43.0,43.0,29.57,North,360,20.0,22.0,100,-99.99,,,-99.99,,2013-04-07 11:32:00,
2013-04-07 04:41:00,43.0,43.0,29.57,North,360,20.0,22.0,100,-99.99,,,-99.99,,2013-04-07 11:41:00,
2013-04-07 04:52:00,43.0,43.0,29.57,North,360,20.0,22.0,100,-99.99,,,-99.99,,2013-04-07 11:52:00,
2013-04-07 05:00:00,42.0,42.0,29.54,North,360,20.0,23.0,100,-99.99,,,-99.99,,2013-04-07 12:00:00,
2013-04-07 05:21:00,42.0,42.0,29.54,North,360,20.0,23.0,100,-99.99,,,-99.99,,2013-04-07 12:21:00,
2013-04-07 05:32:00,42.0,42.0,29.54,North,360,20.0,23.0,100,-99.99,,,-99.99,,2013-04-07 12:32:00,
2013-04-07 05:42:00,42.0,42.0,29.54,North,360,20.0,23.0,100,-99.99,,,-99.99,,2013-04-07 12:42:00,
2013-04-07 05:52:00,42.0,42.0,29.54,North,360,20.0,23.0,100,-99.99,,,-99.99,,2013-04-07 12:52:00,
2013-04-07 06:00:00,40.0,40.0,29.53,North,350,18.0,22.0,100,-99.99,,,-99.99,,2013-04-07 13:00:00,
2013-04-07 06:21:00,40.0,40.0,29.53,North,350,18.0,22.0,100,-99.99,,,-99.99,,2013-04-07 13:21:00,
2013-04-07 06:31:00,40.0,40.0,29.53,North,350,18.0,22.0,100,-99.99,,,-99.99,,2013-04-07 13:31:00,
2013-04-07 06:41:00,40.0,40.0,29.53,North,350,18.0,22.0,100,-99.99,,,-99.99,,2013-04-07 13:41:00,
2013-04-07 06:52:00,40.0,40.0,29.53,North,350,18.0,22.0,100,-99.99,,,-99.99,,2013-04-07 13:52:00,
2013-04-07 07:00:00,41.0,41.0,29.55,North,350,13.0,14.0,100,-99.99,,,-99.99,,2013-04-07 14:00:00,
2013-04-07 07:21:00,41.0,41.0,29.55,North,350,13.0,14.0,100,-99.99,,,-99.99,,2013-04-07 14:21:00,
2013-04-07 07:32:00,41.0,41.0,29.55,North,350,13.0,14.0,100,-99.99,,,-99.99,,2013-04-07 14:32:00,
2013-04-07 07:42:00,41.0,41.0,29.55,North,350,13.0,14.0,100,-99.99,,,-99.99,,2013-04-07 14:42:00,
2013-04-07 07:52:00,41.0,41.0,29.55,North,350,13.0,14.0,100,-99.99,,,-99.99,,2013-04-07 14:52:00,
2013-04-07 08:00:00,42.0,42.0,29.59,NNW,330,16.0,20.0,100,-99.99,,,-99.99,,2013-04-07 15:00:00,
2013-04-07 08:21:00,42.0,42.0,29.59,NNW,330,16.0,20.0,100,-99.99,,,-99.99,,2013-04-07 15:21:00,
2013-04-07 08:32:00,42.0,42.0,29.59,NNW,330,16.0,20.0,100,-99.99,,,-99.99,,2013-04-07 15:32:00,
2013-04-07 08:42:00,42.0,42.0,29.59,NNW,330,16.0,20.0,100,-99.99,,,-99.99,,2013-04-07 15:42:00,
2013-04-07 08:53:00,42.0,42.0,29.59,NNW,330,16.0,20.0,100,-99.99,,,-99.99,,2013-04-07 15:53:00,
2013-04-07 09:00:00,42.0,42.0,29.64,NW,320,13.0,15.0,100,-99.99,,,-99.99,,2013-04-07 16:00:00,
2013-04-07 09:23:00,42.0,42.0,29.64,NW,320,13.0,15.0,100,-99.99,,,-99.99,,2013-04-07 16:23:00,
2013-04-07 09:32:00,42.0,42.0,29.64,NW,320,13.0,15.0,100,-99.99,,,-99.99,,2013-04-07 16:32:00,
2013-04-07 09:42:00,42.0,42.0,29.64,NW,320,13.0,15.0,100,-99.99,,,-99.99,,2013-04-07 16:42:00,
2013-04-07 09:52:00,42.0,42.0,29.64,NW,320,13.0,15.0,100,-99.99,,,-99.99,,2013-04-07 16:52:00,
2013-04-07 10:00:00,43.0,43.0,29.66,SSW,200,20.0,21.0,100,-99.99,,,-99.99,,2013-04-07 17:00:00,
2013-04-07 10:22:00,43.0,43.0,29.66,SSW,200,20.0,21.0,100,-99.99,,,-99.99,,2013-04-07 17:22:00,
2013-04-07 10:32:00,43.0,43.0,29.66,SSW,200,20.0,21.0,100,-99.99,,,-99.99,,2013-04-07 17:32:00,
2013-04-07 10:42:00,43.0,43.0,29.66,SSW,200,20.0,21.0,100,-99.99,,,-99.99,,2013-04-07 17:42:00,
2013-04-07 10:52:00,43.0,43.0,29.66,SSW,200,20.0,21.0,100,-99.99,,,-99.99,,2013-04-07 17:52:00,
2013-04-07 11:00:00,42.0,42.0,29.70,South,190,20.0,21.0,100,-99.99,,,-99.99,,2013-04-07 18:00:00,
2013-04-07 11:21:00,42.0,42.0,29.70,South,190,20.0,21.0,100,-99.99,,,-99.99,,2013-04-07 18:21:00,
2013-04-07 11:32:00,42.0,42.0,29.70,South,190,20.0,21.0,100,-99.99,,,-99.99,,2013-04-07 18:32:00,
2013-04-07 11:42:00,42.0,42.0,29.70,South,190,20.0,21.0,100,-99.99,,,-99.99,,2013-04-07 18:42:00,
2013-04-07 11:51:00,42.0,42.0,29.70,South,190,20.0,21.0,100,-99.99,,,-99.99,,2013-04-07 18:51:00,
2013-04-07 12:00:00,43.0,43.0,29.72,South,170,14.0,15.0,100,-99.99,,,-99.99,,2013-04-07 19:00:00,
2013-04-07 12:21:00,43.0,43.0,29.72,South,170,14.0,15.0,100,-99.99,,,-99.99,,2013-04-07 19:21:00,
2013-04-07 12:31:00,43.0,43.0,29.72,South,170,14.0,15.0,100,-99.99,,,-99.99,,2013-04-07 19:31:00,
2013-04-07 12:42:00,43.0,43.0,29.72,South,170,14.0,15.0,100,-99.99,,,-99.99,,2013-04-07 19:42:00,
2013-04-07 12:52:00,43.0,43.0,29.72,South,170,14.0,15.0,100,-99.99,,,-99.99,,2013-04-07 19:52:00,
2013-04-07 13:00:00,43.0,43.0,29.75,SSE,160,9.0,10.0,100,-99.99,,,-99.99,,2013-04-07 20:00:00,
2013-04-07 13:21:00,43.0,43.0,29.75,SSE,160,9.0,10.0,100,-99.99,,,-99.99,,2013-04-07 20:21:00,
2013-04-07 13:31:00,43.0,43.0,29.75,SSE,160,9.0,10.0,100,-99.99,,,-99.99,,2013-04-07 20:31:00,
2013-04-07 13:42:00,43.0,43.0,29.75,SSE,160,9.0,10.0,100,-99.99,,,-99.99,,2013-04-07 20:42:00,
2013-04-07 13:51:00,43.0,43.0,29.75,SSE,160,9.0,10.0,100,-99.99,,,-99.99,,2013-04-07 20:51:00,
2013-04-07 14:00:00,44.0,44.0,29.75,SE,140,5.0,7.0,100,-99.99,,,-99.99,,2013-04-07 21:00:00,
2013-04-07 14:21:00,44.0,44.0,29.75,SE,140,5.0,7.0,100,-99.99,,,-99.99,,2013-04-07 21:21:00,
2013-04-07 14:32:00,44.0,44.0,29.75,SE,140,5.0,7.0,100,-99.99,,,-99.99,,2013-04-07 21:32:00,
2013-04-07 14:42:00,44.0,44.0,29.75,SE,140,5.0,7.0,100,-99.99,,,-99.99,,2013-04-07 21:42:00,
2013-04-07 14:52:00,44.0,44.0,29.75,SE,140,5.0,7.0,100,-99.99,,,-99.99,,2013-04-07 21:52:00,
2013-04-07 15:00:00,47.0,47.0,29.76,SE,140,5.0,8.0,100,-99.99,,,-99.99,,2013-04-07 22:00:00,
2013-04-07 15:22:00,47.0,47.0,29.76,SE,140,5.0,8.0,100,-99.99,,,-99.99,,2013-04-07 22:22:00,
2013-04-07 15:32:00,47.0,47.0,29.76,SE,140,5.0,8.0,100,-99.99,,,-99.99,,2013-04-07 22:32:00,
2013-04-07 15:42:00,47.0,47.0,29.76,SE,140,5.0,8.0,100,-99.99,,,-99.99,,2013-04-07 22:42:00,
2013-04-07 15:52:00,47.0,47.0,29.76,SE,140,5.0,8.0,100,-99.99,,,-99.99,,2013-04-07 22:52:00,
2013-04-07 16:00:00,44.0,44.0,29.78,East,100,5.0,7.0,99,-99.99,,,-99.99,,2013-04-07 23:00:00,
2013-04-07 16:31:00,44.0,44.0,29.78,East,100,5.0,7.0,99,-99.99,,,-99.99,,2013-04-07 23:31:00,
2013-04-07 16:42:00,44.0,44.0,29.78,East,100,5.0,7.0,99,-99.99,,,-99.99,,2013-04-07 23:42:00,
2013-04-07 16:52:00,44.0,44.0,29.78,East,100,5.0,7.0,99,-99.99,,,-99.99,,2013-04-07 23:52:00,
2013-04-07 17:00:00,47.0,47.0,29.79,ESE,120,2.0,6.0,100,-99.99,,,-99.99,,2013-04-08 00:00:00,
2013-04-07 17:31:00,47.0,47.0,29.79,ESE,120,2.0,6.0,100,-99.99,,,-99.99,,2013-04-08 00:31:00,
2013-04-07 17:41:00,47.0,47.0,29.79,ESE,120,2.0,6.0,100,-99.99,,,-99.99,,2013-04-08 00:41:00,
2013-04-07 17:51:00,47.0,47.0,29.79,ESE,120,2.0,6.0,100,-99.99,,,-99.99,,2013-04-08 00:51:00,
2013-04-07 18:00:00,45.0,45.0,29.80,East,100,3.0,5.0,99,-99.99,,,-99.99,,2013-04-08 01:00:00,
2013-04-07 18:22:00,45.0,45.0,29.80,East,100,3.0,5.0,99,-99.99,,,-99.99,,2013-04-08 01:22:00,
2013-04-07 18:32:00,45.0,45.0,29.80,East,100,3.0,5.0,99,-99.99,,,-99.99,,2013-04-08 01:32:00,
2013-04-07 18:42:00,45.0,45.0,29.80,East,100,3.0,5.0,99,-99.99,,,-99.99,,2013-04-08 01:42:00,
2013-04-07 18:52:00,45.0,45.0,29.80,East,100,3.0,5.0,99,-99.99,,,-99.99,,2013-04-08 01:52:00,
2013-04-07 19:00:00,46.0,45.0,29.81,SSE,150,3.0,5.0,97,-99.99,,,-99.99,,2013-04-08 02:00:00,
2013-04-07 19:21:00,46.0,45.0,29.81,SSE,150,3.0,5.0,97,-99.99,,,-99.99,,2013-04-08 02:21:00,
2013-04-07 19:32:00,46.0,45.0,29.81,SSE,150,3.0,5.0,97,-99.99,,,-99.99,,2013-04-08 02:32:00,
2013-04-07 19:42:00,46.0,45.0,29.81,SSE,150,3.0,5.0,97,-99.99,,,-99.99,,2013-04-08 02:42:00,
2013-04-07 19:52:00,46.0,45.0,29.81,SSE,150,3.0,5.0,97,-99.99,,,-99.99,,2013-04-08 02:52:00,
2013-04-07 20:00:00,45.0,45.0,29.83,SE,140,3.0,3.0,97,-99.99,,,-99.99,,2013-04-08 03:00:00,
2013-04-07 20:21:00,45.0,45.0,29.83,SE,140,3.0,3.0,97,-99.99,,,-99.99,,2013-04-08 03:21:00,
2013-04-07 20:32:00,45.0,45.0,29.83,SE,140,3.0,3.0,97,-99.99,,,-99.99,,2013-04-08 03:32:00,
2013-04-07 20:42:00,45.0,45.0,29.83,SE,140,3.0,3.0,97,-99.99,,,-99.99,,2013-04-08 03:42:00,
2013-04-07 20:52:00,45.0,45.0,29.83,SE,140,3.0,3.0,97,-99.99,,,-99.99,,2013-04-08 03:52:00,
2013-04-07 21:00:00,45.0,45.0,29.85,SSE,150,3.0,5.0,100,-99.99,,,-99.99,,2013-04-08 04:00:00,
2013-04-07 21:22:00,45.0,45.0,29.85,SSE,150,3.0,5.0,100,-99.99,,,-99.99,,2013-04-08 04:22:00,
2013-04-07 21:32:00,45.0,45.0,29.85,SSE,150,3.0,5.0,100,-99.99,,,-99.99,,2013-04-08 04:32:00,
2013-04-07 21:43:00,45.0,45.0,29.85,SSE,150,3.0,5.0,100,-99.99,,,-99.99,,2013-04-08 04:43:00,
2013-04-07 21:52:00,45.0,45.0,29.85,SSE,150,3.0,5.0,100,-99.99,,,-99.99,,2013-04-08 04:52:00,
2013-04-07 22:00:00,44.0,44.0,29.86,SSE,160,9.0,10.0,100,-99.99,,,-99.99,,2013-04-08 05:00:00,
2013-04-07 22:31:00,44.0,44.0,29.86,SSE,160,9.0,10.0,100,-99.99,,,-99.99,,2013-04-08 05:31:00,
2013-04-07 22:42:00,44.0,44.0,29.86,SSE,160,9.0,10.0,100,-99.99,,,-99.99,,2013-04-08 05:42:00,
2013-04-07 22:51:00,44.0,44.0,29.86,SSE,160,9.0,10.0,100,-99.99,,,-99.99,,2013-04-08 05:51:00,
2013-04-07 23:00:00,44.0,44.0,29.88,SSE,150,9.0,10.0,100,-99.99,,,-99.99,,2013-04-08 06:00:00,
2013-04-07 23:21:00,44.0,44.0,29.88,SSE,150,9.0,10.0,100,-99.99,,,-99.99,,2013-04-08 06:21:00,
2013-04-07 23:32:00,44.0,44.0,29.88,SSE,150,9.0,10.0,100,-99.99,,,-99.99,,2013-04-08 06:32:00,
2013-04-07 23:42:00,44.0,44.0,29.88,SSE,150,9.0,10.0,100,-99.99,,,-99.99,,2013-04-08 06:42:00,
2013-04-07 23:51:00,44.0,44.0,29.88,SSE,150,9.0,10.0,100,-99.99,,,-99.99,,2013-04-08 06:51:00,